When you browse on this site, cookies collect data to enhance your experience and personalize the content and advertising you see.
Visit our Privacy Policy to learn more. By continuing to use the site, you agree to this use of cookies and data.

Hourly Weather Ngozi

Today, 9 July, Thursday

Time Temperature Precipitation Wind Pressure Humidity
00:00 +15°C° 0 mm 1 mps 618 mmHg 70%
01:00 +15°C° 0 mm 1 mps 617 mmHg 71%
02:00 +15°C° 0 mm 1 mps 617 mmHg 73%
03:00 +15°C° 0 mm 1 mps 617 mmHg 71%
04:00 +15°C° 0 mm 0 mps 618 mmHg 69%
05:00 +15°C° 0 mm 0 mps 618 mmHg 66%
06:00 +18°C° 0 mm 1 mps 619 mmHg 63%
07:00 +19°C° 0 mm 1 mps 619 mmHg 61%
08:00 +21°C° 0 mm 1 mps 620 mmHg 56%
09:00 +21°C° 0 mm 2 mps 621 mmHg 52%
10:00 +24°C° 0 mm 2 mps 621 mmHg 48%
11:00 +25°C° 0 mm 3 mps 621 mmHg 44%
12:00 +26°C° 0 mm 3 mps 621 mmHg 40%
13:00 +27°C° 0 mm 3 mps 620 mmHg 37%
14:00 +28°C° 0 mm 2 mps 620 mmHg 33%
15:00 +27°C° 0 mm 2 mps 619 mmHg 36%
16:00 +26°C° 0 mm 2 mps 619 mmHg 39%
17:00 +25°C° 0 mm 2 mps 618 mmHg 41%
18:00 +23°C° 0 mm 2 mps 618 mmHg 47%
19:00 +21°C° 0 mm 1 mps 618 mmHg 53%
20:00 +19°C° 0 mm 1 mps 617 mmHg 58%
21:00 +19°C° 0 mm 1 mps 618 mmHg 58%
22:00 +19°C° 0 mm 1 mps 618 mmHg 57%
23:00 +19°C° 0 mm 1 mps 618 mmHg 57%

Tomorrow, 10 July, Friday

Time Temperature Precipitation Wind Pressure Humidity
00:00 +19°C° 0 mm 1 mps 618 mmHg 61%
01:00 +18°C° 0 mm 1 mps 618 mmHg 65%
02:00 +16°C° 0 mm 1 mps 617 mmHg 69%
03:00 +16°C° 0 mm 1 mps 617 mmHg 72%
04:00 +16°C° 0 mm 1 mps 618 mmHg 75%
05:00 +16°C° 0 mm 1 mps 618 mmHg 78%
06:00 +16°C° 0.1 mm 1 mps 618 mmHg 77%
07:00 +18°C° 0.1 mm 1 mps 619 mmHg 77%
08:00 +19°C° 0.1 mm 1 mps 620 mmHg 76%
09:00 +20°C° 0.2 mm 1 mps 620 mmHg 70%
10:00 +21°C° 0.2 mm 2 mps 620 mmHg 64%
11:00 +23°C° 0.2 mm 2 mps 621 mmHg 59%
12:00 +24°C° 0.1 mm 2 mps 620 mmHg 53%
13:00 +25°C° 0.1 mm 2 mps 620 mmHg 48%
14:00 +27°C° 0.1 mm 2 mps 620 mmHg 43%
15:00 +26°C° 0 mm 2 mps 619 mmHg 44%
16:00 +25°C° 0 mm 2 mps 619 mmHg 46%
17:00 +25°C° 0 mm 2 mps 618 mmHg 47%
18:00 +23°C° 0 mm 2 mps 618 mmHg 53%
19:00 +21°C° 0 mm 1 mps 618 mmHg 58%
20:00 +19°C° 0 mm 1 mps 618 mmHg 64%
21:00 +18°C° 0 mm 1 mps 618 mmHg 66%
22:00 +18°C° 0 mm 1 mps 618 mmHg 68%
23:00 +16°C° 0 mm 1 mps 618 mmHg 71%

Day after tomorrow, 11 July, Saturday

Time Temperature Precipitation Wind Pressure Humidity
00:00 +16°C° 0 mm 1 mps 618 mmHg 73%
01:00 +16°C° 0 mm 1 mps 617 mmHg 76%
02:00 +15°C° 0 mm 1 mps 617 mmHg 78%
03:00 +15°C° 0 mm 1 mps 617 mmHg 80%
04:00 +15°C° 0 mm 1 mps 617 mmHg 82%
05:00 +14°C° 0 mm 1 mps 617 mmHg 84%
06:00 +16°C° 0 mm 1 mps 618 mmHg 78%
07:00 +17°C° 0 mm 2 mps 619 mmHg 72%
08:00 +19°C° 0 mm 2 mps 620 mmHg 66%
09:00 +20°C° 0 mm 2 mps 621 mmHg 61%
10:00 +23°C° 0 mm 2 mps 621 mmHg 56%
11:00 +24°C° 0 mm 2 mps 621 mmHg 50%
12:00 +25°C° 0 mm 2 mps 621 mmHg 48%
13:00 +25°C° 0 mm 2 mps 620 mmHg 45%
14:00 +26°C° 0 mm 2 mps 620 mmHg 43%
15:00 +25°C° 0 mm 2 mps 619 mmHg 44%
16:00 +25°C° 0 mm 2 mps 619 mmHg 46%
17:00 +25°C° 0 mm 2 mps 619 mmHg 47%
18:00 +22°C° 0 mm 1 mps 618 mmHg 53%
19:00 +20°C° 0 mm 1 mps 618 mmHg 60%
20:00 +18°C° 0 mm 1 mps 618 mmHg 66%
21:00 +18°C° 0 mm 1 mps 618 mmHg 66%
22:00 +18°C° 0 mm 1 mps 618 mmHg 66%
23:00 +18°C° 0 mm 1 mps 618 mmHg 67%

12 July, Sunday

Time Temperature Precipitation Wind Pressure Humidity
00:00 +16°C° 0 mm 1 mps 618 mmHg 69%
01:00 +16°C° 0 mm 1 mps 617 mmHg 71%
02:00 +15°C° 0 mm 1 mps 617 mmHg 73%
03:00 +15°C° 0 mm 1 mps 617 mmHg 74%
04:00 +14°C° 0 mm 0 mps 617 mmHg 76%
05:00 +14°C° 0 mm 0 mps 617 mmHg 77%
06:00 +15°C° 0 mm 0 mps 618 mmHg 71%
07:00 +17°C° 0 mm 0 mps 619 mmHg 64%
08:00 +19°C° 0 mm 0 mps 621 mmHg 58%
09:00 +23°C° 0 mm 1 mps 621 mmHg 53%
10:00 +25°C° 0 mm 2 mps 621 mmHg 47%
11:00 +27°C° 0 mm 2 mps 621 mmHg 41%
12:00 +27°C° 0 mm 2 mps 621 mmHg 39%
13:00 +28°C° 0 mm 2 mps 620 mmHg 37%
14:00 +28°C° 0 mm 2 mps 620 mmHg 34%
15:00 +28°C° 0 mm 2 mps 619 mmHg 37%
16:00 +27°C° 0 mm 2 mps 619 mmHg 39%
17:00 +26°C° 0 mm 2 mps 618 mmHg 41%
18:00 +24°C° 0 mm 2 mps 618 mmHg 48%
19:00 +22°C° 0 mm 1 mps 618 mmHg 54%
20:00 +20°C° 0 mm 1 mps 618 mmHg 60%
21:00 +20°C° 0 mm 1 mps 618 mmHg 62%
22:00 +19°C° 0 mm 1 mps 618 mmHg 64%
23:00 +18°C° 0 mm 1 mps 618 mmHg 66%

13 July, Monday

Time Temperature Precipitation Wind Pressure Humidity
00:00 +18°C° 0 mm 1 mps 618 mmHg 66%
01:00 +19°C° 0 mm 1 mps 618 mmHg 65%
02:00 +19°C° 0 mm 1 mps 617 mmHg 65%
03:00 +18°C° 0 mm 1 mps 617 mmHg 68%
04:00 +16°C° 0 mm 1 mps 617 mmHg 71%
05:00 +16°C° 0 mm 1 mps 617 mmHg 74%
06:00 +17°C° 0 mm 2 mps 618 mmHg 68%
07:00 +18°C° 0 mm 2 mps 619 mmHg 62%
08:00 +19°C° 0 mm 3 mps 620 mmHg 56%
09:00 +20°C° 0 mm 3 mps 620 mmHg 48%
10:00 +22°C° 0 mm 3 mps 620 mmHg 41%
11:00 +24°C° 0 mm 3 mps 620 mmHg 34%
12:00 +25°C° 0 mm 3 mps 620 mmHg 32%
13:00 +26°C° 0 mm 3 mps 619 mmHg 30%
14:00 +27°C° 0 mm 3 mps 619 mmHg 28%
15:00 +26°C° 0 mm 3 mps 619 mmHg 30%
16:00 +25°C° 0 mm 2 mps 618 mmHg 31%
17:00 +25°C° 0 mm 2 mps 618 mmHg 33%
18:00 +21°C° 0 mm 2 mps 617 mmHg 39%
19:00 +20°C° 0 mm 1 mps 617 mmHg 45%
20:00 +18°C° 0 mm 1 mps 617 mmHg 51%
21:00 +16°C° 0 mm 1 mps 617 mmHg 52%
22:00 +16°C° 0 mm 1 mps 617 mmHg 54%
23:00 +15°C° 0 mm 1 mps 617 mmHg 56%

14 July, Tuesday

Time Temperature Precipitation Wind Pressure Humidity
00:00 +15°C° 0 mm 1 mps 617 mmHg 56%
01:00 +14°C° 0 mm 1 mps 616 mmHg 57%
02:00 +14°C° 0 mm 1 mps 616 mmHg 58%
03:00 +14°C° 0 mm 1 mps 616 mmHg 59%
04:00 +14°C° 0 mm 1 mps 616 mmHg 59%
05:00 +13°C° 0 mm 1 mps 616 mmHg 60%
06:00 +15°C° 0 mm 1 mps 617 mmHg 56%
07:00 +18°C° 0 mm 1 mps 619 mmHg 51%
08:00 +18°C° 0 mm 0 mps 620 mmHg 47%
09:00 +21°C° 0 mm 1 mps 620 mmHg 45%
10:00 +21°C° 0 mm 1 mps 620 mmHg 43%
11:00 +21°C° 0 mm 2 mps 620 mmHg 41%
12:00 +24°C° 0 mm 2 mps 620 mmHg 38%
13:00 +25°C° 0 mm 2 mps 620 mmHg 35%
14:00 +26°C° 0 mm 2 mps 619 mmHg 31%
15:00 +26°C° 0 mm 2 mps 619 mmHg 33%
16:00 +26°C° 0 mm 2 mps 619 mmHg 35%
17:00 +25°C° 0 mm 1 mps 618 mmHg 37%
18:00 +23°C° 0 mm 1 mps 618 mmHg 43%
19:00 +21°C° 0 mm 1 mps 618 mmHg 49%
20:00 +19°C° 0 mm 1 mps 618 mmHg 55%
21:00 +18°C° 0 mm 1 mps 618 mmHg 57%
22:00 +16°C° 0 mm 1 mps 618 mmHg 59%
23:00 +16°C° 0 mm 1 mps 618 mmHg 61%
Show more